Regional Weather Roundup
Issued by NWS

Home | Current Version | Previous Version | Text Only | Print | Product List | Glossary Off
Versions: 1 2 3 4 5 6 7 8 9 10 11 12 13 14 15 16 17 18 19 20 21 22 23 24 25 26 27 28 29 30 31 32 33 34 35 36 37 38 39 40 41 42 43 44 45 46 47 48 49 50

000
ASUS43 KLSX 061659
RWRMO

WEATHER SUMMARY FOR MISSOURI
NATIONAL WEATHER SERVICE SPRINGFIELD MO
1200 PM CDT WED MAY 06 2015

NOTE: "FAIR" INDICATES FEW OR NO CLOUDS BELOW 12,000 FEET WITH NO
       SIGNIFICANT WEATHER AND/OR OBSTRUCTIONS TO VISIBILITY.
       CURRENT SKY AND/OR WEATHER CONDITIONS ARE NOT AVAILABLE FOR
       CHILLICOTHE AND FARMINGTON.

MOZ001>031-035>038-043-044-053-054-061800-
...NORTHERN AND WESTERN MISSOURI...

CITY           SKY/WX    TMP DP  RH WIND       PRES   REMARKS
KANSAS CTY INT CLOUDY    68  59  73 S24G31    29.98R
KANSAS C DTWN  CLOUDY    69  58  67 S21G29    29.99R
LEE`S SUMMIT   CLOUDY    66  58  75 S13G21    30.00S
ST JOSEPH      CLOUDY    71  60  68 S18G29    29.95R
CHILLICOTHE      N/A     71  59  65 S14G22    30.01R
KIRKSVILLE     PTSUNNY   76  60  57 S23G37    30.02S

$$
MOZ066>068-077>081-088>096-101>105-061800-
...SOUTHWEST MISSOURI...

CITY           SKY/WX    TMP DP  RH WIND       PRES   REMARKS
SPRINGFIELD    LGT RAIN  66  62  87 SE13      30.07F
JOPLIN         LGT RAIN  68  60  75 SE16      30.01S

$$
MOZ032>034-039>042-045>050-055>058-069>072-061800-
...CENTRAL MISSOURI...

CITY           SKY/WX    TMP DP  RH WIND       PRES   REMARKS
COLUMBIA       MOSUNNY   79  59  50 S23G32    30.05F
JEFFERSON CITY MOSUNNY   79  58  48 S20       30.05F
ROLLA          PTSUNNY   75  58  55 S14       30.08F
SEDALIA        CLOUDY    71  58  63 S17G32    30.05R
OSAGE BEACH    PTSUNNY   77  55  47 S12       30.08F

$$
MOZ051-052-059>065-061800-
...EAST CENTRAL MISSOURI...

CITY           SKY/WX    TMP DP  RH WIND       PRES   REMARKS
ST LOUIS INTL  PTSUNNY   83  55  38 S15       30.12F
SPIRIT OF STL  MOSUNNY   81  54  39 S15G22    30.09F
ST CHARLES     MOSUNNY   81  54  39 S16G22    30.10F

$$
MOZ072>076-082>087-097>100-106>115-061800-
...SOUTH CENTRAL AND SOUTHEAST MISSOURI...

CITY           SKY/WX    TMP DP  RH WIND       PRES   REMARKS
CAPE GIRARDEAU MOSUNNY   82  56  40 S15       30.14F
FARMINGTON     SUNNY     81  54  39 S13G22    30.18F
POPLAR BLUFF   SUNNY     82  55  39 S13       30.12F
WEST PLAINS    PTSUNNY   75  55  49 S8        30.13F

$$



USA.gov is the U.S. government's official web portal to all federal, state and local government web resources and services.